Location: Fours
(44.3167°N, 6.7000°E)
Time: 01:26:26
(UTC+00:00)

DMSP B5D2-2 - Pass Details

Date: 16 October 2021
Orbit: 789 x 806 km, 98.3° (Epoch: 02 December)

Event Time Altitude Azimuth Distance (km) Brightness Sun altitude
Rises 18:02:24 0° 19° (NNE) 3,323 7.1 -14.2°
Reaches altitude 10° 18:04:51 10° 25° (NNE) 2,386 6.3 -14.6°
Maximum altitude 18:09:54 46° 99° (E) 1,062 4.3 -15.5°
Drops below altitude 10° 18:14:54 10° 172° (S) 2,358 6.4 -16.4°
Sets 18:17:18 0° 178° (S) 3,280 7.2 -16.9°
